Precipitable_Water
0.53 0.52 0.52 0.52 0.52 0.52 0.53 0.53 0.51 0.51 0.50 0.49 0.49 0.48 0.48 0.48 0.46 0.46 0.45 0.45 0.45 0.44 0.44 0.43 0.43 0.43 0.42 0.42 0.41 0.41 0.41 0.32 0.29 0.28 0.27 0.31 0.40 0.42 0.38 0.38 0.36 0.37 0.38 0.33 0.31 0.28 0.24 0.26 0.25 0.29 0.27 0.25 0.27 0.25 0.35 0.30 0.31 0.27 0.18 0.16 0.15 0.17 0.18 0.24 0.24 0.25 0.27 0.26 0.29 0.30 0.29 0.26 0.23 0.26 0.27 0.30 0.26 0.25 0.24 0.22 0.23 0.26 0.25 0.26 0.29 0.31 0.34 0.40
0.54 0.54 0.53 0.53 0.53 0.53 0.53 0.52 0.52 0.52 0.51 0.50 0.49 0.49 0.48 0.47 0.46 0.46 0.45 0.45 0.44 0.44 0.44 0.44 0.43 0.43 0.43 0.42 0.41 0.42 0.39 0.33 0.27 0.28 0.29 0.46 0.48 0.42 0.39 0.37 0.37 0.36 0.37 0.30 0.26 0.25 0.23 0.25 0.27 0.28 0.25 0.22 0.35 0.26 0.35 0.29 0.34 0.22 0.21 0.19 0.14 0.19 0.20 0.26 0.27 0.27 0.25 0.26 0.28 0.28 0.29 0.27 0.25 0.27 0.29 0.25 0.24 0.24 0.23 0.22 0.23 0.23 0.23 0.25 0.27 0.30 0.31 0.34
0.55 0.55 0.54 0.54 0.54 0.54 0.53 0.53 0.52 0.52 0.51 0.50 0.50 0.49 0.48 0.48 0.48 0.48 0.47 0.46 0.45 0.45 0.44 0.43 0.44 0.44 0.43 0.44 0.43 0.43 0.39 0.31 0.30 0.28 0.33 0.51 0.48 0.42 0.39 0.39 0.38 0.38 0.34 0.30 0.30 0.29 0.27 0.26 0.28 0.27 0.26 0.22 0.29 0.25 0.33 0.29 0.31 0.29 0.22 0.18 0.19 0.24 0.25 0.26 0.29 0.27 0.30 0.31 0.29 0.29 0.30 0.29 0.29 0.30 0.31 0.25 0.25 0.25 0.23 0.22 0.23 0.23 0.22 0.23 0.25 0.26 0.28 0.32
0.56 0.56 0.56 0.55 0.55 0.55 0.54 0.53 0.53 0.53 0.53 0.52 0.51 0.50 0.49 0.49 0.49 0.49 0.49 0.48 0.46 0.46 0.45 0.45 0.44 0.44 0.45 0.44 0.44 0.44 0.40 0.28 0.25 0.29 0.44 0.49 0.45 0.45 0.42 0.41 0.42 0.40 0.39 0.38 0.36 0.32 0.32 0.32 0.29 0.28 0.25 0.22 0.25 0.32 0.27 0.32 0.27 0.32 0.27 0.22 0.23 0.28 0.26 0.27 0.28 0.28 0.29 0.31 0.30 0.30 0.32 0.30 0.32 0.32 0.30 0.27 0.25 0.24 0.25 0.27 0.26 0.25 0.26 0.27 0.27 0.27 0.28 0.28
0.58 0.58 0.57 0.57 0.58 0.58 0.56 0.56 0.56 0.56 0.56 0.55 0.55 0.55 0.53 0.54 0.53 0.53 0.52 0.51 0.51 0.49 0.49 0.48 0.46 0.46 0.46 0.46 0.44 0.48 0.33 0.20 0.24 0.35 0.46 0.45 0.45 0.47 0.46 0.45 0.45 0.42 0.39 0.38 0.36 0.33 0.32 0.29 0.29 0.29 0.25 0.21 0.25 0.30 0.30 0.34 0.36 0.34 0.28 0.30 0.30 0.31 0.28 0.31 0.32 0.32 0.33 0.34 0.32 0.31 0.29 0.29 0.35 0.33 0.31 0.30 0.26 0.24 0.25 0.27 0.29 0.28 0.29 0.29 0.30 0.30 0.30 0.28
0.59 0.59 0.58 0.59 0.60 0.61 0.60 0.60 0.60 0.61 0.61 0.61 0.61 0.61 0.61 0.61 0.61 0.60 0.59 0.59 0.59 0.58 0.56 0.56 0.54 0.50 0.52 0.50 0.49 0.44 0.30 0.13 0.31 0.38 0.51 0.49 0.48 0.50 0.47 0.47 0.46 0.42 0.38 0.36 0.34 0.33 0.31 0.29 0.28 0.26 0.26 0.26 0.26 0.24 0.29 0.34 0.38 0.27 0.32 0.32 0.33 0.33 0.30 0.33 0.33 0.33 0.33 0.32 0.31 0.30 0.32 0.35 0.33 0.32 0.34 0.33 0.29 0.30 0.33 0.33 0.33 0.33 0.33 0.34 0.34 0.34 0.33 0.32
0.61 0.60 0.60 0.62 0.63 0.64 0.64 0.65 0.65 0.66 0.67 0.67 0.67 0.67 0.67 0.68 0.67 0.68 0.68 0.67 0.66 0.67 0.66 0.65 0.64 0.63 0.59 0.58 0.62 0.46 0.32 0.31 0.41 0.55 0.54 0.56 0.53 0.51 0.50 0.48 0.45 0.40 0.41 0.36 0.34 0.32 0.32 0.31 0.30 0.28 0.28 0.29 0.30 0.29 0.31 0.31 0.35 0.31 0.27 0.33 0.33 0.35 0.33 0.35 0.34 0.35 0.35 0.34 0.33 0.35 0.37 0.33 0.33 0.29 0.35 0.32 0.35 0.36 0.37 0.37 0.36 0.35 0.35 0.36 0.35 0.35 0.35 0.36
0.63 0.62 0.63 0.66 0.66 0.67 0.68 0.68 0.69 0.69 0.70 0.71 0.71 0.72 0.73 0.74 0.75 0.77 0.78 0.79 0.78 0.78 0.78 0.77 0.75 0.72 0.71 0.65 0.50 0.42 0.40 0.39 0.51 0.64 0.60 0.58 0.56 0.55 0.50 0.47 0.43 0.43 0.41 0.37 0.36 0.33 0.36 0.33 0.31 0.33 0.30 0.28 0.30 0.29 0.31 0.30 0.31 0.29 0.28 0.33 0.34 0.34 0.35 0.36 0.36 0.36 0.36 0.35 0.36 0.35 0.33 0.33 0.34 0.33 0.35 0.33 0.36 0.37 0.37 0.37 0.36 0.35 0.34 0.34 0.33 0.33 0.34 0.35
0.66 0.65 0.65 0.68 0.67 0.67 0.68 0.68 0.69 0.69 0.70 0.71 0.72 0.74 0.75 0.77 0.78 0.78 0.79 0.79 0.78 0.76 0.77 0.77 0.75 0.75 0.76 0.66 0.48 0.40 0.39 0.58 0.70 0.72 0.68 0.62 0.56 0.55 0.52 0.42 0.48 0.44 0.42 0.42 0.43 0.41 0.39 0.36 0.36 0.37 0.31 0.32 0.35 0.31 0.33 0.29 0.26 0.31 0.31 0.33 0.33 0.33 0.35 0.36 0.36 0.36 0.35 0.35 0.36 0.33 0.32 0.34 0.35 0.37 0.33 0.34 0.35 0.37 0.37 0.36 0.35 0.34 0.33 0.33 0.33 0.33 0.33 0.33
0.68 0.67 0.69 0.68 0.68 0.68 0.68 0.69 0.69 0.71 0.72 0.74 0.75 0.77 0.78 0.78 0.79 0.79 0.79 0.79 0.77 0.76 0.75 0.75 0.72 0.68 0.64 0.56 0.52 0.38 0.61 0.76 0.78 0.75 0.74 0.66 0.60 0.58 0.58 0.57 0.53 0.49 0.44 0.44 0.45 0.43 0.40 0.40 0.40 0.43 0.41 0.37 0.36 0.32 0.34 0.32 0.29 0.35 0.33 0.33 0.33 0.34 0.35 0.36 0.35 0.35 0.36 0.35 0.36 0.32 0.31 0.32 0.35 0.34 0.28 0.35 0.37 0.37 0.36 0.35 0.35 0.34 0.33 0.33 0.34 0.34 0.35 0.35
0.73 0.70 0.71 0.71 0.70 0.70 0.72 0.74 0.76 0.78 0.80 0.81 0.81 0.82 0.82 0.83 0.83 0.83 0.83 0.81 0.81 0.80 0.79 0.76 0.75 0.69 0.56 0.54 0.43 0.38 0.77 0.74 0.79 0.79 0.79 0.71 0.62 0.60 0.62 0.65 0.61 0.52 0.49 0.48 0.46 0.48 0.48 0.47 0.47 0.46 0.41 0.35 0.37 0.34 0.35 0.34 0.37 0.35 0.35 0.35 0.35 0.36 0.37 0.37 0.36 0.36 0.36 0.34 0.36 0.34 0.32 0.34 0.35 0.34 0.31 0.35 0.37 0.37 0.35 0.34 0.34 0.34 0.33 0.33 0.34 0.34 0.37 0.37
0.74 0.74 0.74 0.77 0.78 0.80 0.82 0.84 0.85 0.85 0.86 0.87 0.86 0.86 0.87 0.87 0.87 0.87 0.86 0.85 0.85 0.85 0.83 0.81 0.77 0.72 0.64 0.51 0.45 0.46 0.69 0.72 0.79 0.80 0.80 0.76 0.68 0.68 0.70 0.68 0.63 0.57 0.54 0.49 0.50 0.54 0.54 0.52 0.50 0.44 0.34 0.42 0.33 0.37 0.34 0.38 0.37 0.36 0.37 0.32 0.34 0.36 0.35 0.37 0.35 0.36 0.36 0.34 0.37 0.36 0.32 0.31 0.33 0.31 0.35 0.37 0.38 0.37 0.35 0.34 0.34 0.35 0.35 0.34 0.34 0.36 0.37 0.39
0.80 0.82 0.84 0.85 0.86 0.88 0.89 0.90 0.91 0.92 0.92 0.92 0.92 0.92 0.93 0.93 0.93 0.92 0.91 0.90 0.91 0.89 0.87 0.86 0.80 0.75 0.58 0.45 0.50 0.63 0.72 0.77 0.78 0.77 0.76 0.77 0.72 0.72 0.71 0.70 0.67 0.64 0.61 0.55 0.54 0.56 0.58 0.55 0.51 0.42 0.44 0.40 0.36 0.31 0.37 0.40 0.38 0.39 0.38 0.35 0.33 0.34 0.33 0.37 0.38 0.38 0.36 0.36 0.38 0.37 0.25 0.28 0.31 0.34 0.37 0.39 0.38 0.36 0.35 0.34 0.34 0.34 0.36 0.36 0.37 0.37 0.39 0.40
0.91 0.92 0.92 0.92 0.93 0.94 0.95 0.96 0.96 0.97 0.97 0.97 0.98 0.98 0.98 0.97 0.96 0.94 0.93 0.92 0.93 0.92 0.91 0.88 0.83 0.71 0.57 0.47 0.59 0.68 0.75 0.78 0.77 0.72 0.69 0.72 0.64 0.63 0.67 0.68 0.68 0.66 0.66 0.60 0.59 0.60 0.58 0.58 0.52 0.47 0.48 0.40 0.37 0.47 0.40 0.40 0.40 0.34 0.36 0.36 0.30 0.29 0.28 0.36 0.36 0.38 0.34 0.38 0.38 0.37 0.26 0.28 0.31 0.35 0.38 0.39 0.38 0.36 0.34 0.35 0.37 0.37 0.38 0.38 0.39 0.40 0.40 0.41
0.97 0.97 0.97 0.98 0.99 0.99 1.00 1.01 1.01 1.01 1.02 1.02 1.02 1.01 0.99 0.96 0.95 0.92 0.92 0.91 0.94 0.92 0.87 0.87 0.82 0.63 0.50 0.49 0.64 0.72 0.76 0.74 0.64 0.64 0.71 0.62 0.59 0.56 0.58 0.64 0.62 0.63 0.63 0.62 0.59 0.60 0.59 0.57 0.50 0.43 0.40 0.46 0.45 0.40 0.36 0.36 0.36 0.37 0.31 0.27 0.30 0.27 0.28 0.34 0.38 0.38 0.33 0.37 0.39 0.36 0.27 0.29 0.32 0.34 0.38 0.40 0.39 0.38 0.36 0.38 0.40 0.39 0.39 0.40 0.41 0.41 0.42 0.42
1.03 1.02 1.02 1.04 1.04 1.04 1.03 1.03 1.04 1.05 1.04 1.04 1.02 1.01 1.00 0.98 0.94 0.92 0.92 0.90 0.88 0.91 0.87 0.72 0.69 0.66 0.51 0.44 0.54 0.72 0.63 0.54 0.56 0.68 0.70 0.69 0.63 0.55 0.60 0.58 0.59 0.59 0.58 0.57 0.59 0.57 0.55 0.51 0.42 0.42 0.41 0.43 0.40 0.36 0.34 0.33 0.33 0.34 0.30 0.27 0.27 0.29 0.29 0.31 0.36 0.38 0.38 0.36 0.37 0.34 0.28 0.31 0.32 0.37 0.39 0.40 0.39 0.40 0.39 0.40 0.41 0.40 0.41 0.42 0.42 0.42 0.42 0.42
1.07 1.07 1.06 1.05 1.06 1.05 1.05 1.05 1.05 1.05 1.05 1.03 1.03 1.00 1.00 0.99 0.94 0.93 0.93 0.91 0.90 0.95 0.88 0.68 0.73 0.66 0.44 0.58 0.70 0.56 0.55 0.62 0.73 0.71 0.71 0.72 0.70 0.65 0.61 0.57 0.54 0.54 0.55 0.54 0.54 0.52 0.49 0.44 0.45 0.44 0.45 0.41 0.41 0.39 0.32 0.29 0.29 0.31 0.34 0.29 0.31 0.28 0.30 0.29 0.36 0.39 0.37 0.36 0.32 0.34 0.31 0.31 0.34 0.37 0.38 0.39 0.40 0.41 0.41 0.41 0.40 0.41 0.42 0.43 0.42 0.42 0.42 0.42
1.06 1.04 1.04 1.05 1.05 1.06 1.07 1.06 1.07 1.06 1.05 1.04 1.01 0.99 0.96 0.98 0.96 0.96 0.90 0.88 0.92 0.89 0.82 0.84 0.75 0.58 0.50 0.63 0.50 0.54 0.66 0.65 0.67 0.70 0.69 0.70 0.70 0.65 0.60 0.54 0.55 0.53 0.52 0.49 0.51 0.45 0.47 0.41 0.45 0.38 0.40 0.41 0.40 0.37 0.31 0.26 0.30 0.31 0.32 0.31 0.31 0.33 0.33 0.31 0.30 0.34 0.37 0.36 0.34 0.34 0.33 0.32 0.34 0.36 0.37 0.39 0.41 0.42 0.40 0.41 0.41 0.42 0.42 0.42 0.42 0.42 0.42 0.42
1.06 1.05 1.06 1.07 1.08 1.08 1.09 1.09 1.08 1.08 1.07 1.06 1.05 1.05 1.07 1.03 1.01 0.96 0.83 0.82 0.71 0.62 0.52 0.52 0.55 0.40 0.38 0.51 0.61 0.63 0.65 0.68 0.72 0.67 0.60 0.62 0.66 0.66 0.62 0.61 0.55 0.49 0.43 0.42 0.43 0.45 0.46 0.44 0.45 0.40 0.36 0.38 0.39 0.39 0.35 0.35 0.38 0.36 0.35 0.33 0.32 0.29 0.30 0.31 0.34 0.39 0.38 0.35 0.34 0.34 0.32 0.33 0.34 0.35 0.37 0.39 0.41 0.41 0.41 0.42 0.42 0.42 0.42 0.42 0.41 0.41 0.42 0.41
1.12 1.12 1.13 1.13 1.14 1.16 1.15 1.14 1.15 1.13 1.13 1.05 1.01 0.98 0.96 0.77 0.74 0.67 0.72 0.74 0.62 0.60 0.60 0.62 0.63 0.62 0.62 0.64 0.64 0.74 0.81 0.77 0.62 0.69 0.68 0.70 0.68 0.64 0.61 0.60 0.56 0.55 0.49 0.43 0.46 0.48 0.51 0.42 0.39 0.39 0.42 0.44 0.45 0.44 0.42 0.43 0.41 0.39 0.37 0.34 0.32 0.32 0.32 0.36 0.37 0.40 0.42 0.37 0.34 0.35 0.35 0.34 0.34 0.36 0.38 0.39 0.41 0.41 0.41 0.41 0.41 0.41 0.41 0.41 0.41 0.41 0.42 0.41
1.17 1.18 1.19 1.18 1.19 1.21 1.20 1.19 1.19 1.16 1.16 1.10 1.03 0.86 0.65 0.66 0.56 0.53 0.67 0.71 0.76 0.77 0.72 0.72 0.72 0.68 0.65 0.73 0.78 0.76 0.69 0.71 0.77 0.76 0.76 0.82 0.75 0.67 0.59 0.60 0.54 0.49 0.52 0.54 0.50 0.55 0.53 0.42 0.42 0.46 0.48 0.48 0.48 0.48 0.46 0.43 0.42 0.39 0.36 0.34 0.33 0.35 0.32 0.38 0.38 0.42 0.43 0.37 0.34 0.36 0.34 0.34 0.35 0.37 0.38 0.40 0.40 0.39 0.40 0.40 0.40 0.40 0.41 0.41 0.41 0.41 0.41 0.42
1.24 1.24 1.24 1.22 1.24 1.25 1.24 1.22 1.21 1.17 1.18 1.12 0.99 0.80 0.82 0.84 0.89 0.91 0.81 0.60 0.74 0.81 0.80 0.79 0.83 0.76 0.85 0.84 0.86 0.87 0.82 0.71 0.72 0.77 0.83 0.81 0.69 0.61 0.59 0.58 0.53 0.49 0.55 0.54 0.52 0.48 0.44 0.41 0.47 0.51 0.53 0.52 0.51 0.50 0.49 0.45 0.42 0.42 0.38 0.37 0.35 0.35 0.38 0.40 0.41 0.41 0.40 0.37 0.32 0.34 0.31 0.32 0.35 0.37 0.39 0.39 0.39 0.40 0.42 0.41 0.41 0.41 0.41 0.41 0.42 0.42 0.41 0.41
1.29 1.28 1.28 1.28 1.28 1.29 1.27 1.26 1.23 1.19 1.11 0.99 0.88 0.87 0.87 0.99 1.02 1.03 0.93 0.76 0.66 0.79 0.77 0.77 0.73 0.76 0.78 0.88 0.86 0.89 0.73 0.68 0.65 0.74 0.77 0.78 0.67 0.66 0.62 0.56 0.54 0.55 0.55 0.53 0.45 0.44 0.39 0.43 0.51 0.54 0.53 0.50 0.49 0.49 0.48 0.45 0.44 0.41 0.39 0.36 0.33 0.38 0.35 0.30 0.37 0.38 0.37 0.35 0.32 0.34 0.31 0.32 0.36 0.38 0.39 0.41 0.41 0.41 0.44 0.44 0.44 0.43 0.41 0.41 0.41 0.41 0.40 0.39
1.31 1.31 1.31 1.31 1.34 1.32 1.30 1.28 1.26 1.17 1.09 1.04 0.99 0.98 1.08 1.10 1.08 1.02 0.84 0.64 0.59 0.69 0.75 0.79 0.80 0.79 0.77 0.76 0.85 0.81 0.71 0.69 0.70 0.67 0.82 0.74 0.64 0.69 0.63 0.59 0.55 0.54 0.51 0.52 0.49 0.45 0.42 0.49 0.55 0.53 0.52 0.48 0.45 0.46 0.45 0.42 0.39 0.41 0.40 0.38 0.36 0.36 0.36 0.34 0.34 0.38 0.38 0.38 0.38 0.35 0.31 0.30 0.33 0.34 0.36 0.41 0.43 0.42 0.42 0.43 0.44 0.44 0.44 0.43 0.42 0.41 0.40 0.39
1.36 1.37 1.37 1.37 1.36 1.37 1.32 1.29 1.13 1.08 1.15 1.08 1.04 1.14 1.16 1.15 1.11 1.03 0.82 0.69 0.67 0.65 0.86 0.80 0.84 0.80 0.79 0.91 0.87 0.73 0.71 0.72 0.71 0.75 0.78 0.75 0.68 0.65 0.60 0.65 0.57 0.49 0.51 0.53 0.50 0.45 0.44 0.51 0.55 0.50 0.49 0.48 0.45 0.42 0.43 0.41 0.36 0.38 0.41 0.40 0.38 0.39 0.37 0.37 0.38 0.36 0.33 0.31 0.36 0.33 0.25 0.24 0.31 0.33 0.36 0.39 0.38 0.37 0.40 0.40 0.40 0.41 0.41 0.41 0.39 0.39 0.40 0.40
1.39 1.40 1.40 1.39 1.40 1.37 1.38 1.10 1.08 1.15 1.08 1.01 1.08 1.17 1.18 1.15 1.12 1.06 0.83 0.59 0.47 0.61 0.75 0.60 0.84 0.68 0.87 0.73 0.77 0.74 0.73 0.59 0.71 0.74 0.77 0.77 0.78 0.67 0.63 0.57 0.57 0.47 0.51 0.51 0.48 0.46 0.45 0.52 0.51 0.48 0.46 0.45 0.44 0.41 0.43 0.43 0.37 0.35 0.36 0.43 0.41 0.40 0.39 0.38 0.36 0.35 0.28 0.25 0.32 0.36 0.26 0.22 0.30 0.30 0.33 0.35 0.34 0.34 0.37 0.38 0.38 0.38 0.38 0.38 0.38 0.38 0.39 0.39
1.40 1.40 1.40 1.41 1.43 1.43 1.15 0.97 1.24 1.19 0.97 1.04 1.22 1.24 1.21 1.17 1.15 1.00 0.69 0.51 0.42 0.65 0.61 0.75 0.72 0.69 0.74 0.68 0.67 0.71 0.43 0.49 0.69 0.73 0.72 0.77 0.67 0.74 0.54 0.53 0.55 0.56 0.55 0.54 0.47 0.40 0.49 0.48 0.48 0.48 0.46 0.43 0.41 0.39 0.42 0.42 0.38 0.33 0.43 0.44 0.42 0.40 0.38 0.38 0.37 0.35 0.32 0.36 0.35 0.35 0.32 0.25 0.21 0.26 0.31 0.32 0.31 0.31 0.32 0.35 0.36 0.37 0.38 0.38 0.38 0.38 0.39 0.40
1.40 1.41 1.42 1.43 1.44 1.42 1.22 1.29 1.20 1.07 1.08 1.22 1.30 1.25 1.22 1.16 1.09 0.99 0.65 0.37 0.35 0.69 0.57 0.67 0.68 0.84 0.70 0.65 0.66 0.56 0.54 0.62 0.50 0.60 0.69 0.72 0.70 0.61 0.56 0.50 0.49 0.49 0.52 0.48 0.34 0.48 0.47 0.45 0.46 0.44 0.44 0.42 0.40 0.42 0.46 0.46 0.39 0.38 0.45 0.45 0.42 0.42 0.40 0.40 0.37 0.35 0.34 0.31 0.25 0.30 0.33 0.25 0.20 0.25 0.30 0.31 0.28 0.29 0.30 0.33 0.35 0.36 0.37 0.37 0.37 0.38 0.39 0.39
1.41 1.44 1.45 1.46 1.47 1.46 1.45 1.30 1.21 1.10 1.27 1.31 1.30 1.26 1.21 1.13 1.00 0.73 0.53 0.36 0.56 0.57 0.75 0.56 0.80 0.68 0.64 0.64 0.59 0.57 0.56 0.58 0.47 0.57 0.65 0.68 0.69 0.60 0.50 0.53 0.53 0.51 0.53 0.49 0.40 0.46 0.49 0.49 0.49 0.48 0.43 0.39 0.44 0.47 0.49 0.47 0.41 0.46 0.48 0.47 0.45 0.44 0.42 0.39 0.36 0.34 0.32 0.28 0.21 0.26 0.30 0.22 0.19 0.24 0.26 0.31 0.30 0.28 0.30 0.33 0.35 0.36 0.36 0.37 0.37 0.38 0.39 0.38
1.45 1.47 1.50 1.50 1.47 1.39 1.36 1.39 1.25 1.31 1.33 1.32 1.27 1.22 1.17 1.03 0.80 0.55 0.43 0.32 0.56 0.45 0.58 0.61 0.59 0.54 0.59 0.53 0.53 0.55 0.51 0.53 0.56 0.58 0.59 0.56 0.61 0.63 0.58 0.60 0.54 0.51 0.48 0.50 0.47 0.48 0.48 0.53 0.53 0.49 0.45 0.47 0.47 0.49 0.50 0.49 0.48 0.51 0.48 0.43 0.41 0.40 0.38 0.38 0.36 0.33 0.30 0.22 0.21 0.27 0.28 0.25 0.18 0.22 0.24 0.25 0.27 0.30 0.33 0.35 0.37 0.39 0.39 0.40 0.39 0.38 0.39 0.38
1.47 1.50 1.52 1.53 1.33 1.35 1.35 1.17 1.26 1.34 1.31 1.29 1.26 1.19 1.07 0.85 0.60 0.46 0.34 0.45 0.58 0.57 0.61 0.57 0.54 0.61 0.53 0.49 0.46 0.53 0.53 0.53 0.52 0.55 0.51 0.56 0.54 0.57 0.55 0.50 0.55 0.49 0.47 0.46 0.44 0.47 0.47 0.48 0.46 0.48 0.52 0.51 0.51 0.46 0.50 0.52 0.50 0.47 0.42 0.38 0.36 0.34 0.36 0.33 0.32 0.33 0.24 0.19 0.23 0.28 0.28 0.29 0.18 0.21 0.25 0.30 0.33 0.33 0.33 0.33 0.35 0.36 0.38 0.38 0.39 0.39 0.39 0.40
1.49 1.53 1.54 1.49 1.47 1.48 1.18 1.09 1.28 1.32 1.28 1.26 1.22 1.00 0.82 0.53 0.59 0.40 0.38 0.64 0.43 0.52 0.52 0.51 0.56 0.54 0.52 0.53 0.50 0.49 0.48 0.51 0.53 0.51 0.47 0.48 0.47 0.46 0.47 0.41 0.44 0.36 0.35 0.38 0.37 0.47 0.42 0.43 0.48 0.48 0.52 0.48 0.45 0.43 0.44 0.46 0.45 0.42 0.38 0.35 0.28 0.25 0.26 0.22 0.26 0.22 0.21 0.18 0.24 0.29 0.30 0.26 0.24 0.25 0.30 0.33 0.33 0.35 0.37 0.37 0.36 0.37 0.37 0.38 0.38 0.38 0.39 0.40
1.52 1.52 1.53 1.49 1.46 1.35 1.32 1.35 1.35 1.29 1.28 1.23 1.06 0.92 0.65 0.49 0.34 0.46 0.48 0.53 0.45 0.57 0.54 0.61 0.54 0.54 0.54 0.51 0.48 0.51 0.54 0.45 0.52 0.50 0.51 0.50 0.47 0.47 0.50 0.48 0.48 0.43 0.33 0.40 0.38 0.38 0.39 0.46 0.46 0.47 0.48 0.49 0.46 0.37 0.36 0.35 0.38 0.36 0.33 0.31 0.27 0.23 0.22 0.19 0.21 0.24 0.23 0.26 0.30 0.28 0.32 0.24 0.27 0.29 0.34 0.33 0.36 0.38 0.39 0.40 0.40 0.39 0.38 0.38 0.38 0.37 0.39 0.39
1.49 1.49 1.40 1.42 1.40 1.37 1.37 1.38 1.33 1.29 1.20 1.14 0.91 0.73 0.60 0.42 0.38 0.56 0.52 0.54 0.55 0.65 0.61 0.56 0.55 0.54 0.52 0.46 0.50 0.51 0.45 0.51 0.50 0.49 0.50 0.46 0.47 0.43 0.46 0.50 0.51 0.46 0.45 0.43 0.36 0.37 0.30 0.31 0.39 0.44 0.39 0.48 0.44 0.40 0.38 0.36 0.36 0.35 0.38 0.34 0.29 0.27 0.22 0.19 0.20 0.18 0.19 0.22 0.25 0.30 0.25 0.22 0.20 0.23 0.35 0.35 0.37 0.38 0.39 0.39 0.39 0.38 0.38 0.37 0.38 0.38 0.37 0.38
1.43 1.41 1.38 1.35 1.34 1.35 1.36 1.34 1.31 1.28 1.19 0.98 0.77 0.61 0.44 0.41 0.49 0.47 0.49 0.53 0.56 0.59 0.55 0.62 0.54 0.51 0.49 0.50 0.53 0.53 0.51 0.45 0.50 0.48 0.46 0.45 0.42 0.43 0.42 0.44 0.48 0.49 0.48 0.38 0.41 0.39 0.34 0.33 0.40 0.47 0.46 0.47 0.41 0.44 0.44 0.39 0.37 0.38 0.38 0.39 0.31 0.28 0.32 0.24 0.24 0.23 0.23 0.22 0.21 0.22 0.22 0.27 0.26 0.34 0.36 0.37 0.37 0.36 0.37 0.36 0.36 0.35 0.36 0.36 0.35 0.36 0.37 0.39
1.34 1.29 1.33 1.23 1.22 1.29 1.33 1.32 1.29 1.25 1.10 0.87 0.66 0.52 0.44 0.49 0.45 0.54 0.51 0.62 0.60 0.53 0.55 0.57 0.55 0.47 0.47 0.47 0.51 0.49 0.57 0.46 0.49 0.47 0.45 0.45 0.46 0.42 0.47 0.47 0.45 0.47 0.42 0.36 0.40 0.33 0.36 0.30 0.43 0.45 0.46 0.43 0.42 0.43 0.42 0.42 0.27 0.37 0.37 0.31 0.33 0.42 0.36 0.30 0.30 0.31 0.30 0.27 0.21 0.25 0.24 0.27 0.33 0.33 0.33 0.33 0.33 0.33 0.34 0.35 0.34 0.33 0.34 0.34 0.35 0.37 0.38 0.39
1.21 1.26 1.11 1.17 1.19 1.31 1.33 1.33 1.29 1.19 1.05 0.81 0.61 0.46 0.54 0.57 0.61 0.58 0.61 0.58 0.59 0.59 0.54 0.42 0.46 0.45 0.43 0.42 0.45 0.48 0.50 0.51 0.48 0.45 0.40 0.48 0.42 0.46 0.45 0.47 0.50 0.48 0.48 0.43 0.38 0.44 0.32 0.31 0.41 0.40 0.38 0.44 0.47 0.47 0.46 0.45 0.44 0.39 0.32 0.36 0.44 0.47 0.41 0.33 0.24 0.26 0.24 0.21 0.21 0.24 0.19 0.19 0.20 0.16 0.27 0.29 0.29 0.30 0.32 0.33 0.34 0.35 0.34 0.34 0.35 0.37 0.38 0.39
1.17 1.14 1.12 1.12 1.20 1.31 1.34 1.34 1.26 1.13 0.96 0.75 0.54 0.53 0.64 0.55 0.65 0.64 0.67 0.63 0.61 0.59 0.51 0.46 0.48 0.51 0.43 0.42 0.42 0.48 0.53 0.46 0.48 0.48 0.42 0.47 0.39 0.53 0.47 0.48 0.52 0.50 0.50 0.51 0.40 0.42 0.42 0.32 0.36 0.41 0.42 0.45 0.47 0.46 0.43 0.47 0.49 0.40 0.37 0.49 0.34 0.29 0.27 0.33 0.30 0.20 0.19 0.18 0.19 0.22 0.21 0.20 0.19 0.20 0.26 0.26 0.28 0.30 0.32 0.33 0.33 0.33 0.33 0.34 0.35 0.37 0.39 0.41
1.14 1.06 0.92 1.08 1.25 1.27 1.28 1.30 1.18 1.00 0.82 0.63 0.54 0.52 0.61 0.62 0.68 0.64 0.66 0.65 0.64 0.58 0.49 0.51 0.46 0.51 0.49 0.44 0.46 0.51 0.52 0.43 0.50 0.48 0.42 0.46 0.39 0.53 0.48 0.51 0.48 0.53 0.54 0.52 0.45 0.45 0.46 0.33 0.34 0.43 0.42 0.45 0.44 0.41 0.32 0.38 0.46 0.47 0.48 0.42 0.46 0.38 0.32 0.28 0.29 0.29 0.27 0.20 0.19 0.18 0.21 0.17 0.22 0.24 0.27 0.28 0.31 0.31 0.30 0.31 0.32 0.33 0.34 0.35 0.36 0.37 0.40 0.41
1.00 0.90 0.84 1.16 1.24 1.26 1.26 1.22 1.02 0.89 0.72 0.53 0.55 0.58 0.67 0.61 0.65 0.68 0.68 0.65 0.60 0.56 0.54 0.52 0.56 0.50 0.53 0.51 0.52 0.47 0.53 0.51 0.48 0.47 0.46 0.47 0.43 0.56 0.47 0.55 0.48 0.49 0.52 0.53 0.47 0.51 0.40 0.45 0.29 0.38 0.44 0.43 0.33 0.38 0.34 0.37 0.35 0.37 0.37 0.35 0.37 0.36 0.40 0.35 0.32 0.26 0.22 0.20 0.19 0.17 0.17 0.20 0.24 0.30 0.29 0.30 0.31 0.31 0.31 0.31 0.32 0.33 0.33 0.35 0.37 0.38 0.39 0.40
1.01 0.86 0.85 1.19 1.21 1.25 1.20 1.03 0.82 0.70 0.64 0.66 0.68 0.63 0.65 0.59 0.63 0.65 0.68 0.70 0.67 0.74 0.63 0.59 0.57 0.52 0.52 0.51 0.50 0.55 0.49 0.50 0.50 0.46 0.47 0.47 0.45 0.39 0.56 0.52 0.52 0.47 0.51 0.49 0.46 0.49 0.39 0.39 0.31 0.34 0.34 0.32 0.33 0.41 0.41 0.41 0.40 0.37 0.35 0.32 0.32 0.28 0.25 0.21 0.18 0.26 0.24 0.21 0.17 0.17 0.15 0.20 0.27 0.30 0.29 0.30 0.31 0.32 0.33 0.32 0.32 0.33 0.33 0.35 0.37 0.38 0.39 0.39
0.84 0.69 0.78 1.15 1.21 1.19 0.99 0.73 0.72 0.77 0.69 0.60 0.57 0.63 0.60 0.69 0.64 0.64 0.67 0.71 0.69 0.64 0.73 0.64 0.62 0.57 0.55 0.53 0.52 0.51 0.49 0.47 0.48 0.46 0.49 0.44 0.50 0.47 0.55 0.60 0.55 0.54 0.47 0.42 0.42 0.52 0.45 0.43 0.37 0.30 0.30 0.31 0.36 0.43 0.48 0.47 0.45 0.41 0.39 0.33 0.34 0.31 0.29 0.23 0.16 0.18 0.23 0.24 0.25 0.23 0.19 0.21 0.30 0.33 0.34 0.34 0.34 0.35 0.35 0.35 0.34 0.34 0.36 0.37 0.39 0.40 0.40 0.40
0.78 0.71 1.03 1.12 1.18 1.08 0.85 0.67 0.71 0.69 0.64 0.68 0.76 0.71 0.71 0.66 0.61 0.65 0.63 0.66 0.60 0.65 0.61 0.58 0.56 0.54 0.56 0.54 0.53 0.51 0.51 0.46 0.46 0.43 0.45 0.46 0.48 0.52 0.59 0.57 0.56 0.52 0.49 0.45 0.47 0.49 0.50 0.39 0.33 0.34 0.39 0.41 0.41 0.43 0.44 0.44 0.41 0.36 0.37 0.38 0.32 0.27 0.28 0.26 0.25 0.27 0.24 0.23 0.20 0.20 0.19 0.23 0.32 0.37 0.36 0.35 0.35 0.36 0.37 0.37 0.36 0.36 0.37 0.38 0.38 0.38 0.38 0.37
0.77 0.77 0.85 1.07 1.15 1.02 0.74 0.54 0.54 0.59 0.63 0.69 0.68 0.64 0.70 0.65 0.63 0.60 0.59 0.63 0.59 0.59 0.55 0.55 0.57 0.57 0.50 0.55 0.53 0.47 0.51 0.39 0.46 0.44 0.42 0.46 0.44 0.55 0.55 0.54 0.56 0.49 0.47 0.46 0.41 0.53 0.37 0.40 0.37 0.29 0.28 0.29 0.30 0.31 0.32 0.39 0.36 0.31 0.28 0.30 0.31 0.31 0.30 0.31 0.31 0.31 0.24 0.24 0.22 0.21 0.15 0.19 0.32 0.39 0.38 0.36 0.37 0.37 0.37 0.37 0.37 0.35 0.36 0.36 0.35 0.35 0.34 0.32
0.76 0.81 0.80 0.90 1.03 0.94 0.64 0.65 0.60 0.57 0.58 0.58 0.59 0.58 0.60 0.62 0.64 0.63 0.62 0.59 0.64 0.60 0.56 0.53 0.53 0.55 0.52 0.55 0.51 0.51 0.52 0.44 0.39 0.47 0.44 0.45 0.44 0.53 0.52 0.52 0.52 0.47 0.50 0.51 0.49 0.53 0.38 0.35 0.32 0.22 0.17 0.14 0.12 0.12 0.14 0.21 0.26 0.30 0.29 0.27 0.27 0.25 0.26 0.25 0.21 0.23 0.20 0.26 0.27 0.23 0.19 0.26 0.35 0.36 0.34 0.36 0.36 0.34 0.32 0.31 0.32 0.31 0.30 0.29 0.28 0.27 0.26 0.24
0.66 0.54 0.68 0.73 0.83 0.81 0.77 0.80 0.72 0.62 0.57 0.57 0.55 0.57 0.60 0.55 0.62 0.67 0.66 0.62 0.64 0.62 0.59 0.57 0.59 0.59 0.54 0.52 0.48 0.48 0.46 0.52 0.44 0.40 0.41 0.38 0.42 0.45 0.47 0.48 0.47 0.45 0.48 0.49 0.48 0.46 0.36 0.36 0.32 0.28 0.24 0.21 0.21 0.22 0.29 0.29 0.27 0.21 0.23 0.24 0.23 0.25 0.25 0.24 0.22 0.19 0.17 0.20 0.19 0.20 0.20 0.21 0.21 0.21 0.24 0.25 0.24 0.22 0.23 0.24 0.24 0.24 0.25 0.25 0.25 0.25 0.24 0.23
0.69 0.56 0.59 0.54 0.71 0.70 0.65 0.70 0.67 0.66 0.57 0.61 0.51 0.56 0.52 0.55 0.58 0.62 0.70 0.56 0.64 0.61 0.61 0.59 0.56 0.51 0.50 0.50 0.47 0.45 0.47 0.45 0.48 0.42 0.38 0.37 0.41 0.42 0.47 0.45 0.45 0.45 0.45 0.43 0.46 0.41 0.34 0.27 0.28 0.28 0.27 0.26 0.26 0.25 0.27 0.27 0.23 0.22 0.20 0.19 0.21 0.20 0.21 0.20 0.18 0.15 0.20 0.16 0.13 0.15 0.17 0.17 0.15 0.13 0.12 0.13 0.18 0.19 0.21 0.22 0.23 0.24 0.24 0.24 0.25 0.25 0.23 0.22
0.53 0.59 0.63 0.66 0.55 0.50 0.53 0.56 0.63 0.61 0.62 0.62 0.55 0.58 0.53 0.53 0.54 0.50 0.61 0.64 0.63 0.65 0.52 0.54 0.55 0.53 0.51 0.49 0.48 0.41 0.41 0.40 0.41 0.35 0.38 0.38 0.36 0.41 0.38 0.44 0.40 0.44 0.42 0.40 0.43 0.35 0.29 0.23 0.25 0.26 0.25 0.26 0.27 0.25 0.25 0.23 0.21 0.19 0.17 0.15 0.13 0.12 0.13 0.13 0.15 0.16 0.16 0.13 0.09 0.10 0.10 0.09 0.10 0.11 0.13 0.15 0.18 0.21 0.24 0.25 0.25 0.25 0.25 0.25 0.24 0.23 0.22 0.21
0.60 0.59 0.58 0.65 0.53 0.56 0.54 0.53 0.57 0.57 0.54 0.55 0.52 0.52 0.47 0.47 0.45 0.51 0.51 0.51 0.55 0.53 0.54 0.40 0.43 0.48 0.49 0.51 0.45 0.39 0.39 0.32 0.31 0.37 0.33 0.32 0.32 0.33 0.31 0.35 0.41 0.42 0.40 0.37 0.37 0.37 0.30 0.25 0.26 0.26 0.23 0.22 0.20 0.19 0.19 0.17 0.15 0.14 0.13 0.13 0.13 0.12 0.11 0.13 0.12 0.11 0.12 0.12 0.13 0.13 0.13 0.13 0.13 0.14 0.17 0.19 0.21 0.22 0.23 0.24 0.24 0.23 0.22 0.23 0.23 0.23 0.23 0.24
0.51 0.49 0.47 0.57 0.54 0.51 0.52 0.51 0.51 0.50 0.45 0.49 0.44 0.45 0.44 0.43 0.41 0.46 0.51 0.47 0.41 0.43 0.50 0.42 0.42 0.47 0.49 0.48 0.46 0.39 0.38 0.37 0.34 0.29 0.33 0.30 0.31 0.33 0.31 0.32 0.31 0.37 0.37 0.32 0.33 0.35 0.26 0.19 0.23 0.20 0.16 0.14 0.15 0.17 0.18 0.17 0.15 0.13 0.13 0.12 0.11 0.11 0.12 0.12 0.11 0.12 0.13 0.13 0.14 0.14 0.14 0.13 0.15 0.18 0.18 0.19 0.20 0.21 0.21 0.20 0.20 0.22 0.23 0.23 0.22 0.21 0.21 0.22
0.56 0.56 0.55 0.46 0.41 0.43 0.46 0.47 0.45 0.44 0.41 0.44 0.41 0.41 0.43 0.44 0.40 0.44 0.45 0.52 0.46 0.41 0.44 0.39 0.42 0.44 0.46 0.45 0.44 0.42 0.44 0.41 0.39 0.35 0.35 0.33 0.26 0.35 0.30 0.31 0.35 0.29 0.32 0.29 0.30 0.27 0.25 0.18 0.21 0.19 0.14 0.12 0.13 0.14 0.15 0.14 0.12 0.11 0.09 0.08 0.08 0.09 0.09 0.08 0.09 0.10 0.10 0.09 0.10 0.12 0.12 0.12 0.14 0.18 0.19 0.19 0.20 0.19 0.19 0.20 0.20 0.21 0.21 0.21 0.19 0.18 0.18 0.18
0.56 0.58 0.56 0.47 0.37 0.43 0.41 0.46 0.46 0.44 0.36 0.39 0.38 0.37 0.36 0.37 0.43 0.46 0.40 0.49 0.49 0.48 0.46 0.44 0.44 0.41 0.40 0.39 0.37 0.39 0.43 0.43 0.41 0.41 0.40 0.40 0.39 0.37 0.36 0.34 0.33 0.28 0.28 0.26 0.29 0.23 0.23 0.20 0.16 0.16 0.13 0.11 0.10 0.13 0.11 0.11 0.11 0.09 0.07 0.07 0.07 0.08 0.09 0.11 0.12 0.13 0.12 0.12 0.11 0.10 0.09 0.12 0.15 0.18 0.16 0.18 0.20 0.20 0.19 0.19 0.19 0.19 0.20 0.19 0.17 0.15 0.16 0.17
Wind_Speed
10 10 9 9 9 9 9 9 9 9 9 9 9 9 9 9 9 9 10 10 10 10 11 11 11 11 12 12 12 13 13 13 13 13 13 13 12 10 10 10 9 9 10 10 10 10 11 11 12 11 11 12 11 12 12 12 11 11 10 9 11 10 10 10 10 12 12 13 14 13 13 13 14 15 15 15 16 16 17 18 17 16 16 15 17 17 16 14
11 11 11 11 11 11 11 11 10 11 10 10 10 10 10 10 10 10 11 11 11 12 12 12 12 13 13 13 14 14 14 14 14 14 14 13 11 10 10 10 10 10 11 11 11 11 11 12 13 12 12 13 13 12 12 12 11 11 10 10 11 11 11 12 12 13 13 13 14 14 14 14 15 16 16 15 16 17 17 18 18 18 18 17 17 17 15 14
12 12 12 12 12 12 12 12 12 12 11 11 11 11 11 11 11 11 12 12 12 13 13 13 13 14 14 14 15 15 15 15 14 13 12 11 10 10 11 11 11 12 12 12 12 12 12 13 13 12 13 13 13 13 12 12 12 12 11 11 13 12 13 15 15 15 14 14 14 15 15 16 17 17 16 16 17 17 16 17 18 19 20 18 17 17 16 16
14 14 13 13 13 13 13 13 13 13 12 12 12 12 12 12 12 13 13 13 13 14 14 14 14 15 15 15 15 15 15 14 13 12 11 10 11 12 12 13 13 13 13 13 14 13 14 14 13 13 13 14 14 13 12 13 12 12 11 12 13 13 14 16 17 16 16 15 14 15 16 17 17 16 16 17 17 16 16 17 18 19 20 20 19 18 18 17
15 15 14 14 14 14 14 14 13 13 13 13 13 13 14 14 14 14 14 15 15 15 15 15 16 16 16 16 16 15 14 13 13 13 12 12 13 13 14 14 14 14 14 14 14 14 14 14 13 13 13 14 14 13 13 14 12 13 13 13 15 14 15 16 17 17 17 16 16 16 16 17 17 17 17 17 17 17 18 19 19 20 20 20 20 20 19 19
16 16 15 15 15 15 15 15 15 14 14 15 15 15 15 15 16 16 16 16 16 17 17 17 17 17 17 17 16 15 14 13 14 14 14 14 14 15 15 15 15 14 14 14 15 14 14 14 14 14 14 14 14 14 15 15 13 14 15 15 16 16 16 17 18 19 19 18 17 17 17 17 17 18 18 18 19 20 20 20 20 21 21 20 20 20 20 20
17 17 16 16 16 16 16 16 16 16 16 16 16 16 17 17 17 17 17 18 18 18 18 18 18 18 18 17 16 15 14 16 17 16 16 16 16 16 16 16 15 14 15 15 15 15 14 14 14 14 14 14 15 15 16 16 14 15 16 17 17 18 18 19 19 19 19 19 19 18 18 18 18 18 18 19 21 22 21 21 21 21 21 20 20 19 20 20
18 18 18 17 17 17 17 17 17 17 17 17 18 18 18 18 18 18 19 19 19 19 19 19 19 19 18 17 16 16 16 18 18 17 17 16 16 17 16 16 15 15 15 15 16 15 14 15 15 15 15 15 15 15 16 16 15 15 16 17 17 18 19 20 20 21 22 22 21 20 20 19 19 19 18 21 23 22 21 21 20 21 21 20 19 20 20 20
19 19 19 19 19 19 19 18 19 18 19 19 19 19 19 19 19 19 20 20 20 20 20 19 19 19 18 17 16 16 18 18 18 17 17 17 17 17 16 16 16 16 16 16 16 15 15 15 16 16 15 16 16 16 16 15 16 16 17 17 18 19 20 21 22 23 23 23 22 21 21 21 20 19 18 21 23 22 21 20 20 20 20 20 20 20 20 21
20 20 20 20 20 20 20 20 19 19 19 20 20 20 20 20 20 20 20 20 20 20 20 19 19 18 18 18 16 16 18 18 17 17 17 17 17 17 17 17 16 16 16 16 16 16 16 16 17 16 16 16 16 17 17 16 17 18 18 19 19 20 22 22 23 25 24 22 22 20 21 21 19 17 18 21 22 21 21 20 20 20 20 20 20 21 20 19
21 21 21 21 20 20 20 20 20 20 20 20 20 20 20 20 20 20 20 20 20 19 19 19 19 18 18 17 16 17 18 17 17 17 17 17 17 17 18 17 17 17 17 17 17 17 17 17 17 17 17 17 17 19 19 18 18 19 19 20 21 22 23 24 24 25 22 20 21 19 20 20 17 16 20 22 22 21 21 19 19 19 20 21 20 20 19 18
22 21 21 21 20 20 20 20 20 20 20 20 20 20 20 20 20 20 20 20 20 19 19 19 19 18 18 17 18 19 19 18 18 18 18 18 18 18 18 17 18 18 18 18 18 18 18 18 17 17 18 18 18 19 19 19 19 20 20 20 22 22 22 24 23 23 20 19 19 17 19 19 16 17 21 22 22 21 20 19 19 19 20 21 20 18 17 17
22 22 21 21 21 21 21 21 20 20 20 20 20 20 21 21 21 21 20 20 20 20 20 19 19 19 18 18 19 20 20 19 19 19 19 19 19 20 19 19 19 19 19 19 19 19 19 19 18 19 19 18 18 19 19 20 20 21 20 20 22 21 21 22 21 21 19 18 17 15 18 20 17 18 21 22 21 21 21 21 20 20 21 20 18 17 16 17
22 22 21 21 21 21 21 21 21 21 21 21 21 21 21 21 21 21 21 21 21 21 21 20 20 20 19 20 20 21 21 20 20 20 21 20 20 21 21 20 20 20 20 20 20 20 20 19 19 19 20 19 20 20 20 21 21 21 21 20 21 20 21 22 20 18 17 18 17 16 19 21 19 19 21 21 21 21 22 22 22 22 21 19 16 16 16 16
23 22 22 22 22 22 22 22 22 22 22 22 22 22 22 22 22 22 22 22 22 21 21 21 21 20 20 21 21 21 20 20 21 21 21 21 20 21 21 20 20 20 20 20 20 21 20 19 19 19 20 20 20 20 21 21 21 21 21 21 21 19 21 22 21 18 17 18 18 17 20 22 21 21 21 21 22 22 22 22 22 21 19 16 15 15 15 15
24 23 23 23 23 23 23 23 23 23 23 23 23 24 24 24 23 23 23 22 22 22 21 21 21 21 21 21 20 20 20 20 21 21 21 20 20 20 20 19 20 20 20 20 20 20 20 19 20 19 20 20 18 18 20 21 22 21 20 22 21 20 21 21 21 19 16 17 19 20 21 22 22 22 22 21 22 22 22 22 21 18 16 15 15 15 14 15
25 25 24 24 24 24 24 24 24 24 24 24 24 25 24 24 23 23 23 22 22 22 21 22 21 21 22 21 20 20 20 20 20 20 21 20 20 20 19 19 20 20 20 20 20 20 20 20 20 20 20 19 19 19 20 22 22 22 21 22 22 21 21 21 22 21 18 18 21 22 23 23 23 23 23 23 23 22 21 21 18 15 14 14 13 12 12 14
26 25 25 25 25 24 24 24 24 24 24 24 25 25 24 23 23 23 23 22 22 22 22 22 21 21 22 21 20 20 20 20 20 20 21 21 20 20 19 19 19 19 19 20 20 20 20 20 20 20 20 20 20 20 22 23 23 23 22 22 23 22 22 22 22 21 20 21 22 23 24 24 24 24 24 24 23 21 20 18 15 13 13 12 11 10 11 13
26 26 25 25 25 25 24 24 24 24 25 24 24 24 23 23 23 23 23 22 22 22 22 22 21 21 21 21 22 21 21 21 21 21 21 21 20 20 20 20 19 19 19 20 21 20 20 20 20 21 22 22 22 22 24 25 23 23 23 23 23 23 23 23 23 21 21 23 24 24 24 24 24 24 24 25 24 20 18 15 13 12 11 10 10 10 12 14
27 26 26 26 25 25 25 25 25 25 25 25 24 24 23 23 23 23 24 23 24 24 24 24 24 24 25 24 23 23 22 22 22 22 22 22 21 21 22 21 21 21 21 21 22 22 21 21 23 23 23 25 25 24 25 25 24 24 24 24 24 24 24 24 24 23 22 24 25 24 23 23 23 23 24 25 23 20 16 13 12 12 11 10 10 11 13 15
27 27 27 27 26 26 26 25 25 25 26 25 25 24 23 23 23 24 25 25 26 26 27 27 27 28 27 26 25 24 23 23 23 23 23 23 22 22 23 23 22 23 24 22 23 23 23 24 25 25 25 26 25 24 24 24 24 24 24 25 25 24 25 25 25 24 22 22 24 22 22 23 23 23 24 23 21 18 15 12 12 12 11 11 11 13 15 15
28 28 28 28 27 26 26 26 25 26 25 25 24 24 23 24 24 25 25 26 27 27 28 29 29 29 29 28 27 26 25 25 24 24 23 23 23 24 24 24 23 24 24 23 23 24 24 26 27 26 25 25 25 24 24 24 24 24 24 24 25 25 25 25 24 23 20 20 22 22 22 24 24 23 23 20 17 16 15 13 13 13 12 13 13 14 16 15
29 29 28 28 27 27 27 26 26 26 25 24 24 24 24 24 25 25 25 26 28 27 28 29 29 30 29 28 28 26 26 26 25 25 24 23 24 25 25 24 24 25 24 24 24 24 25 26 26 26 25 24 25 24 24 24 24 23 23 23 25 24 23 23 22 21 20 21 22 23 24 24 24 22 21 18 15 15 15 14 14 14 14 14 15 16 16 16
29 29 29 28 28 28 27 27 27 26 25 25 24 24 24 24 25 25 26 27 28 27 27 28 28 28 27 27 26 25 25 25 25 25 24 23 24 25 25 25 25 25 25 25 25 26 27 25 25 25 24 23 24 24 23 23 23 22 22 22 23 23 21 22 21 21 21 22 22 23 25 25 23 22 19 17 17 17 18 17 16 16 15 15 16 17 17 16
30 29 29 29 28 28 27 27 27 26 26 25 25 25 25 25 25 25 26 27 28 28 26 26 25 25 25 24 24 24 24 24 24 24 24 24 24 24 25 25 25 25 25 25 25 26 26 24 23 23 22 22 22 23 22 21 22 22 22 21 22 22 21 21 21 21 21 23 23 22 23 24 23 21 19 19 20 21 22 19 17 17 17 17 17 17 17 16
31 30 30 30 29 28 28 27 27 27 26 26 26 25 25 25 25 25 25 26 28 27 24 23 23 22 22 21 21 21 21 23 23 22 22 23 23 23 24 24 24 24 24 23 23 24 24 23 21 21 22 21 21 22 21 19 20 21 21 19 20 20 19 20 20 20 22 23 23 21 22 25 26 24 22 22 22 22 23 21 19 18 19 19 18 18 17 17
32 32 32 31 30 29 29 28 28 28 27 27 26 25 26 26 25 25 24 24 26 23 21 20 20 19 19 19 19 18 19 20 20 20 21 21 22 22 22 23 22 22 22 20 21 22 21 20 19 19 20 20 20 21 20 18 19 21 20 17 18 18 19 20 20 21 23 25 26 24 22 26 29 26 26 26 23 22 23 22 21 20 19 19 19 19 18 17
34 34 33 33 32 31 30 29 29 29 28 28 26 26 26 25 25 24 22 22 23 20 19 19 18 18 18 18 18 18 19 19 18 19 19 19 20 19 20 21 20 21 21 19 21 22 20 20 20 19 19 20 20 20 18 17 19 22 21 18 18 18 19 20 20 23 25 25 27 25 21 24 28 28 27 26 23 23 23 22 21 20 19 19 19 19 19 18
36 35 35 34 33 32 32 30 30 29 28 27 26 26 25 24 24 22 21 21 22 20 20 20 19 20 19 18 19 19 19 19 18 19 18 18 18 17 18 19 19 20 21 20 21 22 21 20 21 19 19 20 20 20 19 18 20 22 20 19 20 20 20 21 21 23 24 25 26 25 22 23 27 28 26 23 23 24 23 23 22 22 21 21 20 20 20 19
37 36 35 34 33 32 31 31 30 28 27 26 26 26 25 24 23 22 22 23 22 21 21 21 20 20 19 19 21 21 19 19 18 18 18 18 18 18 18 19 18 19 21 21 21 22 22 21 21 20 20 21 20 20 20 19 20 20 20 21 22 22 22 22 23 22 22 25 26 25 24 24 25 26 23 22 23 22 21 22 22 22 22 22 21 21 21 21
36 35 34 34 32 31 30 29 29 27 26 25 25 24 24 23 22 22 23 23 22 22 21 21 21 20 19 19 20 20 19 19 18 18 18 18 18 19 19 19 19 19 20 22 22 22 22 21 21 21 21 20 19 20 21 21 21 20 21 22 22 23 23 22 23 21 21 25 26 25 24 24 25 26 24 25 26 23 21 22 21 21 22 21 22 22 22 22
35 34 33 32 31 30 29 28 27 26 25 24 23 22 22 22 23 24 23 21 20 21 20 20 20 20 20 20 20 20 19 19 20 19 19 19 19 20 20 20 20 19 21 22 22 22 22 22 22 21 21 20 20 21 22 22 22 21 22 21 21 22 22 21 22 22 23 26 26 24 23 24 28 29 27 28 29 26 24 22 20 20 21 21 22 23 23 23
34 33 32 32 30 29 28 26 25 25 24 23 22 21 21 22 23 23 23 21 20 19 19 19 19 20 19 20 21 21 20 20 20 20 20 19 20 22 22 22 21 20 21 22 21 22 23 24 23 22 23 23 21 22 24 24 23 22 23 22 20 20 21 22 23 23 25 26 25 24 24 26 29 29 28 28 28 26 22 20 20 20 21 22 23 23 24 23
32 31 32 32 30 29 28 27 26 25 24 23 22 21 22 23 23 22 22 22 21 20 20 19 20 20 20 21 22 21 20 21 21 20 21 20 21 22 23 23 23 22 22 22 23 23 24 25 24 23 24 24 23 24 24 23 23 23 22 22 22 22 21 23 24 23 24 25 26 26 25 26 27 26 26 26 26 24 22 21 22 22 23 23 23 24 24 24
30 29 30 30 30 29 28 27 26 25 24 23 22 23 24 24 22 22 22 23 22 21 22 22 21 21 22 22 22 21 21 22 22 21 22 23 23 24 24 24 24 23 22 23 24 24 25 27 26 25 24 24 24 25 23 22 23 24 23 22 24 25 23 24 26 26 25 26 27 28 27 27 27 27 28 28 26 26 25 24 23 23 23 23 24 24 24 24
29 29 29 28 28 28 27 27 25 25 24 23 23 26 27 25 23 23 23 23 22 22 22 23 23 23 24 25 24 24 23 23 23 23 24 25 25 26 26 26 25 25 25 25 26 25 26 28 27 26 25 25 25 26 24 23 24 23 23 24 25 25 24 25 27 27 25 26 28 29 29 30 28 29 31 29 27 26 25 24 23 23 24 23 24 25 25 25
29 29 29 28 27 27 27 27 26 26 25 25 27 29 28 27 25 25 25 23 23 23 23 24 24 24 25 25 25 25 24 24 25 25 26 26 26 27 27 26 27 27 27 27 27 27 27 28 29 27 27 27 26 25 25 24 23 23 24 25 26 25 25 25 26 27 26 28 29 29 31 31 29 30 30 27 25 25 25 25 24 24 24 24 25 26 26 26
30 30 31 30 30 29 29 28 28 27 26 27 30 30 28 28 27 25 25 25 24 25 25 26 26 25 25 25 25 24 24 24 24 24 26 27 27 26 26 27 28 27 27 27 27 27 26 28 30 29 27 27 26 25 26 26 25 25 26 27 26 25 26 26 25 26 28 29 29 29 32 32 31 30 29 28 26 25 25 25 25 25 25 25 26 27 28 28
31 31 31 32 32 32 31 31 29 29 29 30 32 31 29 29 28 26 26 25 26 26 26 27 27 26 26 26 25 25 25 26 26 26 26 27 27 26 26 27 27 26 27 26 26 28 27 27 30 29 28 27 27 27 27 27 27 26 27 28 27 27 27 28 27 27 28 29 29 29 30 30 30 29 28 28 27 26 26 26 26 26 26 27 28 29 30 30
31 31 32 32 33 33 33 32 31 31 32 32 32 31 29 29 29 29 28 27 27 27 27 27 27 27 28 28 28 28 28 29 29 28 28 28 28 27 26 27 26 26 27 26 26 28 28 28 30 30 29 28 28 28 27 26 26 26 27 27 28 28 28 29 30 29 28 28 29 29 29 30 30 29 29 29 28 27 27 27 27 28 29 30 30 31 32 33
30 30 31 32 33 34 33 33 33 33 32 32 31 30 30 29 29 30 30 29 29 28 28 28 29 30 30 30 30 30 29 30 29 29 29 29 29 28 28 28 28 28 28 27 28 29 29 29 30 31 31 30 30 30 27 26 26 26 26 27 27 28 28 29 30 30 29 29 29 30 31 31 31 31 31 30 28 28 28 27 28 30 31 31 32 32 33 34
29 29 29 30 32 33 33 34 34 33 33 33 32 31 30 30 30 31 30 30 29 29 29 30 31 31 31 31 31 30 30 30 30 30 30 31 31 30 30 30 29 29 29 30 31 31 30 29 30 32 33 32 32 31 29 28 28 28 28 28 28 28 28 29 29 29 29 30 30 30 31 31 31 32 31 29 28 28 27 28 29 30 31 32 32 34 35 36
28 28 28 29 30 31 31 32 33 33 33 32 31 32 32 32 31 31 31 31 30 30 31 31 31 32 32 32 31 31 31 31 32 32 32 32 32 32 32 32 31 30 31 31 32 31 29 29 30 32 33 33 33 33 32 31 30 29 30 30 29 30 30 30 31 30 29 31 32 31 30 31 31 31 30 29 28 28 29 30 31 32 33 34 35 37 38 38
29 28 28 28 29 30 30 30 31 32 33 32 32 33 33 33 33 32 32 32 32 31 31 32 32 33 33 32 32 33 32 32 33 33 33 33 33 33 33 33 32 32 32 32 31 30 29 28 28 28 30 31 32 32 31 30 29 29 30 30 30 30 30 30 30 30 30 32 33 31 31 32 31 30 30 30 30 31 32 34 34 35 36 38 39 40 40 40
31 31 31 31 32 32 32 30 30 32 33 33 34 34 34 34 34 34 33 33 33 33 33 34 34 33 33 32 32 33 33 32 32 32 32 32 33 33 32 31 31 31 32 32 31 30 30 30 29 28 28 30 31 30 29 29 28 28 29 30 30 30 30 29 30 30 30 30 30 30 32 33 31 31 32 33 33 34 36 38 39 40 40 41 42 42 42 42
33 33 33 33 34 36 36 34 33 33 33 34 35 35 36 36 35 35 35 36 36 36 35 34 34 33 34 33 33 33 34 33 32 32 32 32 33 32 31 30 30 30 30 30 30 30 31 32 32 31 32 34 34 33 32 30 30 31 32 32 33 32 31 30 31 32 31 30 32 35 36 35 36 37 36 36 37 38 39 40 41 42 43 43 43 43 43 42
36 36 36 35 35 37 39 38 37 36 35 35 35 36 37 38 37 36 37 38 37 36 34 34 34 34 34 34 34 34 34 33 33 34 33 32 32 32 31 30 30 30 30 30 31 30 31 33 34 33 35 36 35 35 33 32 32 34 35 36 36 35 34 34 35 35 33 33 37 40 38 38 40 41 40 38 38 38 40 41 42 43 44 44 43 42 42 42
38 38 39 38 37 38 39 40 40 39 37 37 37 37 39 40 40 39 38 38 37 36 35 35 36 36 35 35 35 35 35 34 35 35 34 33 32 32 32 32 32 32 32 31 32 31 31 35 35 33 35 36 35 34 34 33 34 35 36 37 39 39 39 38 38 38 36 36 40 42 41 41 42 42 41 39 39 39 40 41 42 43 43 42 42 41 41 42
39 39 39 39 39 40 41 41 40 40 40 39 38 39 40 41 41 40 37 36 37 37 37 37 38 37 36 35 35 36 36 36 36 36 34 33 33 32 32 33 33 33 32 32 33 32 32 34 34 33 35 36 36 35 34 33 35 36 37 39 40 41 41 39 39 40 39 40 42 42 43 44 43 41 40 40 40 40 39 39 40 40 40 40 40 40 42 42
39 39 39 39 40 40 41 41 40 40 41 40 40 41 41 41 41 39 38 38 38 38 39 39 39 37 37 37 36 37 38 36 36 36 34 33 33 33 33 33 33 33 32 32 33 32 32 33 33 32 33 35 34 32 32 33 35 37 39 41 41 41 40 39 40 41 40 41 43 42 42 43 42 39 39 39 38 38 38 38 38 39 39 39 39 41 42 43
39 39 39 39 41 41 40 40 40 40 41 41 41 42 41 41 41 38 38 39 39 38 39 39 37 36 37 37 37 37 37 35 34 34 33 32 33 32 32 33 32 32 32 33 32 32 32 32 32 30 31 35 34 31 32 34 35 38 42 44 42 39 39 40 40 39 39 41 42 41 41 41 39 37 37 37 37 37 37 38 38 39 39 40 41 42 43 43
41 41 40 40 41 41 41 41 40 41 42 42 42 42 42 42 40 37 38 39 38 38 39 37 35 35 35 36 36 36 34 32 31 31 31 31 31 31 32 32 31 31 32 32 32 32 31 31 32 30 31 36 35 32 32 33 34 38 41 41 39 38 39 39 39 38 39 39 39 40 40 39 37 37 37 37 37 37 38 38 38 39 40 40 41 42 42 43
Wind_Direction
253 256 258 260 263 266 268 270 272 274 277 278 279 280 281 282 282 283 283 283 284 285 285 286 288 290 291 293 295 296 297 295 293 291 287 288 284 281 284 286 285 281 284 288 288 289 293 297 296 297 302 303 300 298 301 302 303 308 308 307 303 301 298 295 302 306 303 303 304 304 310 314 312 315 315 311 310 306 303 301 299 299 296 294 294 295 298 295
257 259 261 263 265 267 269 271 273 275 276 278 279 279 280 281 281 282 282 283 284 285 285 286 287 288 290 292 293 296 296 293 292 290 286 286 280 276 282 287 284 279 283 286 285 286 290 296 294 295 300 299 297 296 298 297 298 301 300 301 298 294 295 298 302 307 306 302 304 307 312 317 312 312 314 309 306 306 305 301 300 299 296 296 295 295 296 293
259 260 262 263 265 267 269 271 272 273 275 276 277 277 278 279 280 281 282 282 283 284 285 286 287 288 289 291 293 295 295 294 293 290 288 286 278 279 284 287 285 280 283 285 284 284 287 293 290 290 296 295 293 293 295 295 295 294 296 299 294 291 298 302 304 307 305 302 306 308 311 313 309 309 312 307 304 305 304 300 299 298 297 298 296 294 293 291
260 261 263 264 265 267 268 270 271 272 274 274 275 276 277 278 279 280 281 282 282 283 284 285 286 288 289 290 293 293 294 295 290 285 285 283 281 285 287 287 286 281 282 287 287 285 287 291 289 289 293 292 291 292 291 290 292 293 293 293 291 295 301 300 302 305 304 306 306 305 310 310 307 308 308 305 306 306 301 296 295 294 295 297 296 295 294 291
260 261 262 263 265 266 267 269 270 271 273 274 275 276 277 278 278 279 280 281 282 283 284 285 286 287 288 289 291 291 293 292 285 282 282 281 283 287 287 288 287 282 282 287 288 287 288 290 290 291 292 291 292 293 288 282 285 293 290 286 288 295 299 298 301 304 303 306 306 306 307 305 305 306 304 303 303 302 300 297 296 295 295 295 295 296 295 293
259 261 261 262 264 266 267 268 270 271 273 274 275 276 277 278 279 280 281 281 282 283 283 284 285 286 287 288 287 288 288 283 280 281 280 280 282 285 287 288 286 282 282 286 287 287 287 288 289 289 289 289 289 288 286 283 281 289 292 289 288 291 295 298 301 302 302 303 302 303 302 302 305 304 301 300 297 297 298 298 298 297 296 296 296 295 294 292
258 261 261 262 264 265 267 268 270 271 273 274 275 276 277 278 279 280 281 282 282 283 283 283 284 285 286 286 285 286 283 279 280 280 279 279 279 283 286 286 284 281 281 283 284 284 285 286 285 283 286 287 286 283 287 291 283 283 292 292 290 292 294 298 301 302 301 300 299 300 301 300 299 300 302 300 296 298 299 299 298 298 298 297 295 294 293 291
258 261 262 263 264 266 267 268 270 271 273 274 275 276 277 279 279 280 281 281 282 282 282 282 282 283 284 283 282 284 281 279 280 279 277 277 279 282 284 284 282 280 280 279 279 282 284 284 281 281 285 286 287 288 292 298 290 284 290 292 295 297 297 300 301 300 300 298 298 299 298 295 292 296 301 297 297 300 301 302 300 299 299 297 295 294 293 291
259 261 262 263 265 266 267 268 270 271 273 274 275 276 277 278 279 280 280 281 281 281 281 280 280 281 281 279 280 282 280 278 280 278 276 276 278 280 282 283 280 278 279 278 277 279 281 282 280 282 285 287 290 291 294 295 290 289 292 295 298 298 298 300 299 297 296 295 295 296 294 292 292 297 299 295 296 300 303 303 301 299 298 297 295 294 294 294
259 261 262 264 265 265 267 268 270 271 272 274 275 276 277 278 279 279 280 280 280 280 280 279 279 279 278 278 279 279 279 279 279 277 276 277 278 279 281 281 279 277 278 278 278 277 279 280 281 283 285 288 290 290 292 289 287 292 296 297 297 297 298 297 296 294 293 293 292 290 291 291 293 299 299 295 297 301 303 303 302 301 299 298 296 295 297 299
259 260 261 263 264 265 266 268 269 271 272 273 274 275 276 277 278 278 279 279 279 279 280 279 279 278 277 278 276 275 279 280 278 277 277 277 279 279 281 280 278 276 276 278 279 279 279 279 282 284 285 287 289 291 292 288 289 293 296 298 296 297 298 295 293 292 292 294 289 286 288 291 296 299 294 295 300 303 304 303 303 302 301 299 297 296 298 300
258 259 260 262 263 264 266 267 269 270 272 273 274 275 276 277 278 278 279 279 279 280 279 279 278 277 278 279 275 275 279 279 277 278 277 278 279 279 280 280 278 276 275 277 278 280 279 279 282 283 283 285 288 290 289 288 292 294 295 296 294 297 297 292 291 289 290 293 290 289 293 294 295 293 293 297 302 305 305 304 304 303 300 299 298 297 298 300
257 258 259 261 262 264 265 266 268 270 271 273 274 275 276 277 278 278 279 279 279 279 279 278 277 277 277 278 277 277 278 277 276 277 277 277 279 279 279 279 278 276 276 276 276 278 278 278 280 280 281 284 286 287 287 289 292 293 293 291 292 298 296 290 291 291 292 292 289 289 292 293 292 291 294 299 302 305 304 304 304 301 299 299 298 296 298 301
255 257 258 260 261 263 264 266 268 270 272 273 274 276 276 277 278 278 278 278 278 278 278 276 276 276 276 276 278 278 277 277 276 276 276 277 278 279 279 278 278 277 276 275 275 277 278 279 280 280 281 282 283 286 290 291 289 290 292 290 292 295 293 292 293 294 296 294 290 288 289 292 294 294 295 298 300 302 301 300 300 298 298 299 296 296 299 301
255 256 258 259 261 263 264 266 268 270 271 273 274 275 276 276 276 277 277 277 277 276 276 276 275 276 277 277 278 277 276 276 276 276 276 276 277 278 278 277 276 276 276 275 275 276 278 279 279 280 281 282 284 287 290 290 288 290 290 290 292 290 291 295 294 292 291 293 293 290 289 293 296 295 295 297 298 299 298 298 299 299 299 299 297 298 299 299
255 256 258 259 261 263 264 266 268 270 271 273 274 275 275 275 275 275 275 276 275 274 275 275 274 275 277 277 277 277 275 274 274 276 276 276 276 277 276 276 276 276 275 275 275 276 278 279 279 278 280 282 284 287 291 291 291 291 287 288 290 288 291 295 296 294 289 290 293 291 291 295 296 296 297 297 297 298 298 297 299 300 300 300 300 301 301 301
255 256 258 260 262 263 265 266 268 269 271 273 274 274 274 274 273 273 274 274 273 273 274 274 274 276 277 276 276 275 274 274 274 274 276 276 276 275 276 277 276 274 275 276 276 277 278 278 278 279 280 282 283 287 290 289 290 291 288 288 288 287 290 291 295 297 294 291 290 291 291 292 294 297 297 297 296 298 298 298 300 299 299 301 301 304 308 310
255 256 258 259 261 263 264 266 268 269 271 272 273 274 273 272 271 272 273 273 272 273 274 274 274 276 276 275 275 275 274 273 274 274 275 276 276 275 275 276 275 275 277 278 278 276 277 278 278 280 282 284 284 284 284 284 286 287 286 287 287 287 288 289 292 293 292 290 288 290 290 290 294 296 296 296 296 299 301 300 300 298 299 299 298 305 314 318
254 256 257 259 260 262 264 266 268 269 271 272 273 273 273 271 271 272 272 272 271 272 274 272 271 273 275 275 275 275 275 273 274 276 274 274 275 274 274 275 275 275 277 279 278 274 274 279 280 280 281 281 280 279 278 280 281 281 281 283 284 285 286 287 289 289 288 289 288 288 289 291 292 293 295 295 297 302 302 300 298 297 297 295 294 302 313 318
254 256 258 260 261 262 264 267 268 270 272 273 273 273 272 272 273 272 271 270 269 270 272 271 270 271 274 276 275 275 275 273 274 274 272 272 272 272 273 274 275 276 277 275 274 272 272 276 277 278 278 277 277 276 276 278 278 279 281 283 282 282 284 286 288 289 288 289 288 287 289 291 291 294 295 295 299 302 299 296 297 295 293 289 289 298 309 315
255 256 258 260 262 264 265 267 269 270 272 272 273 272 270 270 272 272 272 272 270 270 270 271 270 271 272 273 272 272 274 275 275 273 271 271 270 271 272 272 274 276 275 272 273 275 273 273 275 275 275 275 277 277 276 277 278 278 279 281 282 282 283 285 286 287 287 286 287 289 291 291 291 295 296 295 300 300 293 294 297 294 292 290 289 295 303 307
255 256 258 260 262 264 265 267 269 270 271 270 271 271 270 270 271 272 273 273 272 272 270 271 271 271 271 271 270 272 273 274 275 272 270 269 268 270 270 271 272 273 273 273 275 276 274 275 276 274 274 276 278 278 277 277 277 278 278 280 283 284 286 288 288 288 287 284 286 290 290 289 291 294 295 297 299 298 296 296 296 295 293 291 291 294 297 301
254 256 258 260 261 264 265 267 268 269 268 268 269 270 270 271 272 273 274 273 274 273 271 271 271 270 271 271 272 272 271 272 273 272 269 267 267 268 268 269 271 272 272 271 272 272 273 276 275 273 274 276 277 278 278 279 278 277 277 279 282 284 286 288 289 290 288 286 287 288 289 289 291 293 297 299 296 297 299 298 298 296 293 292 292 293 296 299
254 256 258 259 261 264 265 267 268 266 266 266 267 269 270 272 273 274 275 275 275 274 272 271 272 272 271 271 272 272 271 272 273 271 267 264 265 268 268 268 269 271 271 269 268 269 272 275 273 273 275 274 275 278 278 278 279 278 275 275 279 282 281 281 287 291 290 290 290 290 292 291 290 291 294 294 293 294 294 296 299 295 292 292 292 294 296 297
254 256 258 259 261 263 265 266 266 264 264 266 267 268 270 272 273 275 277 278 278 277 274 272 273 273 272 272 272 271 272 273 273 272 267 263 264 268 269 268 269 271 271 269 269 270 274 276 274 275 276 273 274 277 277 275 277 280 276 273 275 277 277 278 286 292 292 292 292 292 294 293 291 290 288 287 290 292 292 294 296 293 292 291 291 293 293 294
254 256 257 259 260 262 264 265 263 264 265 265 266 268 269 271 273 275 278 279 279 278 276 273 272 271 271 272 271 271 274 275 273 271 268 265 266 268 270 269 270 271 270 271 273 274 275 274 273 274 274 273 274 277 277 273 275 279 278 276 276 276 277 278 282 287 288 288 291 292 292 292 291 290 289 288 288 289 291 293 292 291 292 290 289 289 289 290
254 256 257 258 259 261 263 263 263 264 265 265 265 266 269 270 272 274 278 279 277 275 274 273 271 271 271 272 270 271 274 275 275 272 268 268 268 269 270 270 271 271 272 273 274 275 275 274 274 274 275 274 274 276 277 275 276 279 279 281 281 280 278 278 280 282 284 287 290 290 289 290 288 287 289 287 286 288 289 291 290 289 290 289 288 287 288 288
254 255 257 258 258 259 261 263 263 263 263 264 264 265 267 269 270 273 275 275 273 271 271 271 272 272 273 273 272 271 272 273 275 273 270 269 270 270 270 269 269 271 272 269 269 275 278 275 274 273 276 276 274 275 276 274 276 279 280 282 282 280 279 281 282 283 287 289 288 287 288 288 288 289 291 289 286 286 286 287 287 286 286 287 286 286 286 287
254 255 256 257 257 258 260 261 261 262 261 261 262 264 266 267 268 270 269 267 269 270 271 271 273 274 274 274 273 272 272 274 274 272 271 269 269 270 270 269 270 272 272 268 268 274 277 275 273 273 274 274 274 278 278 274 276 278 281 284 286 285 284 285 284 284 289 288 284 284 284 285 288 290 291 292 289 287 287 288 287 284 284 285 285 284 285 286
253 254 254 254 255 256 258 259 259 259 259 259 260 263 264 266 266 264 262 263 268 271 271 272 273 272 273 274 274 272 271 274 274 273 273 271 270 271 272 272 274 273 274 275 273 274 276 276 275 274 274 273 274 279 281 278 277 279 283 286 288 287 286 285 284 285 288 286 283 282 279 280 287 289 288 291 291 288 289 290 287 285 284 285 285 285 283 284
251 253 252 251 252 253 255 257 256 254 254 256 259 262 263 264 262 259 260 265 270 271 270 271 272 271 270 271 271 271 271 272 273 272 273 272 272 273 274 275 276 276 277 277 276 276 277 276 275 275 274 275 277 278 281 282 280 280 282 283 285 286 287 286 286 287 285 284 285 284 279 276 279 284 287 291 294 291 288 286 284 284 284 283 285 284 282 281
249 250 248 248 250 250 252 254 252 249 250 253 257 260 260 260 259 257 261 268 271 269 268 268 268 267 267 269 269 269 270 272 271 271 272 271 271 271 272 273 273 276 277 274 275 278 276 272 273 276 275 274 275 276 279 282 281 279 279 280 282 285 286 285 284 284 281 281 283 283 282 279 277 282 288 291 293 293 290 287 284 282 281 282 282 282 280 279
247 246 244 244 246 248 248 249 248 246 248 250 254 258 258 257 258 257 259 264 266 267 268 268 268 268 268 270 271 270 271 271 269 270 271 271 272 272 273 273 270 273 275 272 274 278 278 277 275 275 277 273 270 272 275 278 278 275 275 274 275 279 282 281 281 283 282 281 281 280 283 283 281 286 289 288 289 290 290 288 285 282 280 280 280 280 278 277
243 243 242 242 244 245 245 246 246 245 245 247 252 257 256 257 261 260 259 261 264 267 270 271 271 273 273 271 271 270 271 271 268 268 270 270 272 274 275 273 270 272 274 273 274 274 275 279 275 273 275 272 269 272 273 275 275 273 273 272 272 273 275 278 279 279 281 282 281 281 283 282 282 286 288 288 288 289 288 286 284 282 281 280 279 278 276 275
239 240 241 241 242 243 243 243 243 242 243 246 253 255 253 256 262 262 261 263 264 265 269 270 271 272 273 272 270 269 271 272 269 269 271 271 271 273 274 273 269 269 272 272 274 274 273 276 276 276 276 272 272 274 273 274 277 275 273 272 273 273 273 276 277 276 278 282 281 279 279 280 281 284 285 285 287 288 287 286 284 283 280 279 278 276 274 274
236 236 238 240 240 240 239 239 239 240 241 247 254 255 255 257 261 263 265 267 265 264 267 269 270 269 270 272 271 270 273 274 272 272 274 273 273 274 273 274 271 266 268 272 274 275 275 276 278 281 280 274 273 274 273 273 275 275 273 270 271 273 274 278 280 279 279 279 278 277 279 281 282 282 283 283 285 286 285 284 283 281 278 277 275 273 273 274
235 235 236 238 239 237 236 237 240 241 244 250 255 256 258 259 261 263 266 267 266 266 265 267 269 268 268 271 271 271 273 275 274 274 275 274 275 275 273 275 275 270 270 274 273 273 274 276 277 278 277 275 274 275 276 275 273 273 273 272 275 277 277 277 279 281 279 277 278 278 277 279 279 280 282 282 282 282 281 281 280 279 277 275 273 272 274 275
236 237 238 239 238 237 237 238 241 243 247 253 256 258 260 262 262 262 263 265 265 265 264 264 266 267 266 268 269 270 271 274 273 274 275 275 276 277 275 276 278 277 276 274 273 273 274 275 277 274 272 274 276 276 277 278 276 273 273 275 277 277 278 277 277 278 278 278 280 279 276 276 277 277 278 277 276 276 277 279 279 278 277 274 273 273 274 275
236 239 242 242 238 237 238 239 241 244 248 254 256 258 261 262 263 262 262 264 264 263 263 263 265 266 266 266 268 271 272 272 273 274 276 275 275 278 278 275 276 278 278 274 270 272 273 272 274 275 273 273 276 275 273 275 277 276 276 278 277 275 275 275 274 275 276 277 280 279 276 277 278 277 275 273 272 273 274 276 277 275 274 272 272 272 273 273
237 240 245 244 240 239 239 240 243 246 251 255 256 258 261 262 263 262 262 264 265 265 264 264 265 266 267 268 269 272 274 273 273 273 274 274 275 276 276 274 272 274 277 275 271 271 272 270 271 275 275 273 273 273 271 272 275 276 277 277 276 275 275 275 274 273 273 274 277 277 276 277 279 280 277 273 273 274 273 274 274 273 272 271 271 271 271 272
239 242 246 245 241 239 238 241 246 249 253 256 257 258 260 262 263 264 264 263 264 266 266 265 265 266 267 269 270 271 273 273 272 272 272 272 272 271 271 271 271 270 273 275 272 271 272 270 270 272 273 271 272 273 273 273 273 273 273 273 272 274 275 275 275 273 271 271 273 275 277 277 279 281 281 278 277 276 273 272 273 272 270 270 270 270 271 273
241 244 247 245 240 238 239 244 248 250 252 254 255 257 258 260 262 263 264 263 263 265 267 267 266 266 267 269 270 270 271 271 270 269 270 270 268 267 268 269 270 271 272 273 273 272 272 272 272 272 271 270 271 273 274 274 272 271 273 274 273 273 273 273 275 276 275 273 275 277 277 278 279 280 281 280 277 274 271 271 271 270 270 270 271 272 274 275
241 244 246 245 239 236 240 246 248 248 251 253 255 256 258 260 262 262 262 263 264 265 266 267 266 266 268 269 269 269 269 268 269 268 268 269 269 269 268 268 270 273 273 272 272 273 273 272 272 273 274 274 274 275 277 277 275 272 274 275 274 273 274 273 273 276 276 275 276 277 276 277 279 279 280 279 277 274 272 272 272 272 273 273 274 275 276 277
242 244 246 245 239 236 240 246 247 248 252 255 256 256 257 259 260 260 261 262 263 265 266 267 267 266 268 269 268 268 267 267 270 269 268 268 269 270 270 269 269 271 271 270 270 271 271 270 271 274 277 278 278 278 278 278 276 273 272 273 272 273 275 275 276 277 276 274 273 273 274 276 277 279 280 280 278 276 275 274 275 275 275 276 276 277 278 278
243 245 247 246 242 240 244 249 250 251 253 254 255 255 256 259 259 258 259 261 262 264 267 268 267 267 269 269 268 268 267 267 269 270 269 269 270 272 272 270 268 268 269 269 268 269 269 269 270 271 273 274 276 276 275 275 276 273 273 273 273 273 274 276 278 276 275 276 274 273 275 277 277 278 279 278 278 277 276 276 277 277 277 277 278 278 278 279
244 246 247 247 245 245 248 251 253 255 255 255 257 257 257 260 262 259 259 261 263 263 267 269 268 268 269 268 267 268 268 267 267 268 269 269 270 272 271 269 269 267 267 268 269 269 270 270 270 268 269 271 273 273 274 275 275 275 275 275 274 273 272 274 276 274 274 277 276 274 276 278 278 278 278 277 277 277 277 277 276 276 277 278 278 279 279 279
247 248 248 249 250 249 251 252 253 255 256 255 258 259 258 259 263 262 261 263 263 263 268 270 268 267 267 266 266 267 267 266 265 266 268 269 270 271 269 269 269 266 266 268 268 270 271 271 270 269 269 271 272 273 275 276 274 273 274 275 275 274 273 273 273 274 275 277 276 276 277 277 277 278 279 278 277 277 278 277 276 277 277 278 279 279 279 279
251 252 251 250 253 253 252 253 253 254 256 256 257 259 259 259 260 262 263 264 264 262 265 267 266 264 264 263 264 266 266 266 266 266 268 268 269 269 269 271 269 267 268 269 269 270 270 271 271 270 271 273 273 274 275 275 274 273 273 274 275 274 274 274 274 274 274 274 276 278 278 276 278 280 280 279 278 277 278 277 278 279 279 279 280 279 278 279
253 255 254 253 255 255 254 254 253 254 256 257 258 259 259 259 260 261 263 264 264 262 261 263 263 262 261 261 262 264 264 265 266 268 268 268 268 267 268 270 270 269 270 270 270 271 271 272 273 271 272 274 274 274 276 275 274 274 274 274 274 275 275 275 275 275 274 274 275 278 277 277 279 281 280 279 279 278 279 279 281 281 281 280 280 279 279 279
253 255 256 256 257 258 258 257 255 255 256 256 257 259 260 260 260 261 262 261 262 262 260 261 262 261 260 261 261 263 264 264 265 267 267 267 267 267 267 268 268 269 271 270 271 271 272 272 273 273 274 275 274 274 275 275 275 275 275 275 275 276 276 276 275 276 276 275 276 277 277 278 281 282 280 280 280 280 281 282 282 281 281 280 280 280 280 280
253 255 256 257 258 258 259 258 256 256 257 256 257 259 259 259 259 260 263 262 261 261 260 259 261 262 262 261 261 263 265 265 264 265 266 266 266 267 267 267 266 268 270 270 271 272 272 272 273 275 275 274 275 275 275 276 277 276 275 276 276 276 276 276 276 276 276 277 279 278 278 280 283 283 281 282 282 282 282 282 282 281 280 280 281 281 281 280
254 256 256 256 258 258 258 258 257 256 257 258 259 259 259 260 260 259 261 264 263 263 262 258 258 262 262 261 261 262 263 263 264 265 267 267 267 267 267 267 266 267 268 269 270 272 271 271 273 273 274 275 277 276 275 277 277 275 276 277 276 276 276 277 277 277 276 277 278 278 279 282 283 282 282 283 283 282 281 281 282 282 281 282 282 282 282 282